Time,TemperatureF,DewpointF,PressureIn,WindDirection,WindDirectionDegrees,WindSpeedMPH,WindSpeedGustMPH,Humidity,HourlyPrecipIn,Conditions,Clouds,dailyrainin,SoftwareType,DateUTC
2013-02-09 00:01:00,14.0,11.8,30.41,NW,314,0.0,0.0,91,0.00,,,0.00,meteohub,2013-02-09 06:01:00,
2013-02-09 00:06:00,14.0,12.0,30.41,WNW,290,0.0,0.0,92,0.00,,,0.00,meteohub,2013-02-09 06:06:00,
2013-02-09 00:11:00,14.0,12.0,30.41,NW,315,0.0,0.0,92,0.00,,,0.00,meteohub,2013-02-09 06:11:00,
2013-02-09 00:16:00,14.0,12.0,30.42,NW,308,0.0,0.0,92,0.00,,,0.00,meteohub,2013-02-09 06:16:00,
2013-02-09 00:21:00,13.8,12.0,30.42,NW,305,1.0,0.0,92,0.00,,,0.00,meteohub,2013-02-09 06:21:00,
2013-02-09 00:26:00,13.8,12.0,30.41,WNW,301,0.0,2.0,92,0.00,,,0.00,meteohub,2013-02-09 06:26:00,
2013-02-09 00:31:00,13.6,11.5,30.41,NW,311,1.0,2.0,91,0.00,,,0.00,meteohub,2013-02-09 06:31:00,
2013-02-09 00:36:00,13.5,11.3,30.41,WNW,288,1.0,3.0,91,0.00,,,0.00,meteohub,2013-02-09 06:36:00,
2013-02-09 00:41:00,13.1,10.9,30.42,WNW,288,1.0,3.0,91,0.00,,,0.00,meteohub,2013-02-09 06:41:00,
2013-02-09 00:46:00,12.7,10.4,30.42,NW,311,2.0,3.0,90,0.00,,,0.00,meteohub,2013-02-09 06:46:00,
2013-02-09 00:51:00,12.6,10.4,30.43,WNW,291,1.0,2.0,91,0.00,,,0.00,meteohub,2013-02-09 06:51:00,
2013-02-09 00:56:00,12.4,10.2,30.43,WNW,292,2.0,2.0,91,0.00,,,0.00,meteohub,2013-02-09 06:56:00,
2013-02-09 01:01:00,12.2,10.0,30.42,NW,310,2.0,2.0,91,0.00,,,0.00,meteohub,2013-02-09 07:01:00,
2013-02-09 01:06:00,12.6,10.8,30.43,WNW,301,1.0,2.0,92,0.00,,,0.00,meteohub,2013-02-09 07:06:00,
2013-02-09 01:11:00,12.6,10.8,30.43,WNW,295,1.0,3.0,92,0.00,,,0.00,meteohub,2013-02-09 07:11:00,
2013-02-09 01:16:00,12.4,10.2,30.43,NW,326,1.0,3.0,91,0.00,,,0.00,meteohub,2013-02-09 07:16:00,
2013-02-09 01:21:00,12.4,10.2,30.43,NW,319,0.0,3.0,91,0.00,,,0.00,meteohub,2013-02-09 07:21:00,
2013-02-09 01:26:00,12.4,10.2,30.43,NW,305,0.0,3.0,91,0.00,,,0.00,meteohub,2013-02-09 07:26:00,
2013-02-09 01:31:00,12.4,10.2,30.42,NW,311,0.0,2.0,91,0.00,,,0.00,meteohub,2013-02-09 07:31:00,
2013-02-09 01:36:00,12.0,10.2,30.42,NW,310,0.0,0.0,92,0.00,,,0.00,meteohub,2013-02-09 07:36:00,
2013-02-09 01:41:00,12.0,10.2,30.43,NW,311,0.0,0.0,92,0.00,,,0.00,meteohub,2013-02-09 07:41:00,
2013-02-09 01:46:00,12.0,10.2,30.42,NNW,332,0.0,0.0,92,0.00,,,0.00,meteohub,2013-02-09 07:46:00,
2013-02-09 01:51:00,12.2,10.4,30.42,NW,323,1.0,3.0,92,0.00,,,0.00,meteohub,2013-02-09 07:51:00,
2013-02-09 01:56:00,12.0,10.2,30.42,NW,323,1.0,3.0,92,0.00,,,0.00,meteohub,2013-02-09 07:56:00,
2013-02-09 02:01:00,12.0,10.2,30.43,NW,310,2.0,3.0,92,0.00,,,0.00,meteohub,2013-02-09 08:01:00,
2013-02-09 02:06:00,12.0,9.9,30.42,NNW,344,1.0,3.0,91,0.00,,,0.00,meteohub,2013-02-09 08:06:00,
2013-02-09 02:11:00,12.0,9.9,30.43,WNW,298,2.0,4.0,91,0.00,,,0.00,meteohub,2013-02-09 08:11:00,
2013-02-09 02:16:00,11.8,9.7,30.43,WNW,298,1.0,4.0,91,0.00,,,0.00,meteohub,2013-02-09 08:16:00,
2013-02-09 02:21:00,11.7,9.5,30.43,NW,312,0.0,3.0,91,0.00,,,0.00,meteohub,2013-02-09 08:21:00,
2013-02-09 02:26:00,11.5,9.3,30.43,NW,324,0.0,2.0,91,0.00,,,0.00,meteohub,2013-02-09 08:26:00,
2013-02-09 02:31:00,11.5,9.3,30.43,NW,306,0.0,2.0,91,0.00,,,0.00,meteohub,2013-02-09 08:31:00,
2013-02-09 02:37:00,11.5,9.3,30.43,NW,326,0.0,2.0,91,0.00,,,0.00,meteohub,2013-02-09 08:37:00,
2013-02-09 02:42:00,11.5,9.3,30.43,WNW,298,1.0,2.0,91,0.00,,,0.00,meteohub,2013-02-09 08:42:00,
2013-02-09 02:47:00,11.5,9.3,30.43,WNW,298,1.0,2.0,91,0.00,,,0.00,meteohub,2013-02-09 08:47:00,
2013-02-09 02:52:00,11.3,9.1,30.43,WNW,301,0.0,2.0,91,0.00,,,0.00,meteohub,2013-02-09 08:52:00,
2013-02-09 02:57:00,10.9,8.8,30.43,WNW,301,0.0,1.0,91,0.00,,,0.00,meteohub,2013-02-09 08:57:00,
2013-02-09 03:02:00,10.8,8.6,30.43,WNW,299,0.0,1.0,91,0.00,,,0.00,meteohub,2013-02-09 09:02:00,
2013-02-09 03:07:00,10.2,8.1,30.43,WNW,301,0.0,0.0,91,0.00,,,0.00,meteohub,2013-02-09 09:07:00,
2013-02-09 03:12:00,10.0,7.9,30.44,West,271,0.0,0.0,91,0.00,,,0.00,meteohub,2013-02-09 09:12:00,
2013-02-09 03:17:00,9.9,7.7,30.43,West,271,0.0,0.0,91,0.00,,,0.00,meteohub,2013-02-09 09:17:00,
2013-02-09 03:22:00,9.9,7.7,30.44,West,271,0.0,0.0,91,0.00,,,0.00,meteohub,2013-02-09 09:22:00,
2013-02-09 03:27:00,9.7,7.5,30.44,West,271,0.0,0.0,91,0.00,,,0.00,meteohub,2013-02-09 09:27:00,
2013-02-09 03:32:00,9.3,7.2,30.44,West,271,0.0,0.0,91,0.00,,,0.00,meteohub,2013-02-09 09:32:00,
2013-02-09 03:37:00,9.3,7.2,30.44,West,271,0.0,0.0,91,0.00,,,0.00,meteohub,2013-02-09 09:37:00,
2013-02-09 03:42:00,9.3,7.5,30.45,West,272,0.0,0.0,92,0.00,,,0.00,meteohub,2013-02-09 09:42:00,
2013-02-09 03:47:00,8.1,5.9,30.45,West,271,0.0,0.0,91,0.00,,,0.00,meteohub,2013-02-09 09:47:00,
2013-02-09 07:12:00,4.3,1.8,30.48,North,-999,-999.0,-999.0,89,-99.99,,,0.00,meteohub,2013-02-09 13:12:00,
2013-02-09 07:17:00,4.6,2.1,30.48,SE,142,0.0,-999.0,89,0.00,,,0.00,meteohub,2013-02-09 13:17:00,
2013-02-09 07:22:00,5.5,3.2,30.48,SE,142,0.0,-999.0,90,0.00,,,0.00,meteohub,2013-02-09 13:22:00,
2013-02-09 07:27:00,5.7,3.2,30.49,SE,142,0.0,0.0,89,0.00,,,0.00,meteohub,2013-02-09 13:27:00,
2013-02-09 07:32:00,6.3,3.7,30.49,SE,142,0.0,0.0,89,0.00,,,0.00,meteohub,2013-02-09 13:32:00,
2013-02-09 07:37:00,7.0,4.6,30.49,SE,143,0.0,0.0,90,0.00,,,0.00,meteohub,2013-02-09 13:37:00,
2013-02-09 07:42:00,7.3,5.0,30.49,SE,143,0.0,0.0,90,0.00,,,0.00,meteohub,2013-02-09 13:42:00,
2013-02-09 07:47:00,7.9,5.4,30.49,West,266,0.0,0.0,89,0.00,,,0.00,meteohub,2013-02-09 13:47:00,
2013-02-09 07:52:00,8.4,6.1,30.49,West,266,0.0,0.0,90,0.00,,,0.00,meteohub,2013-02-09 13:52:00,
2013-02-09 07:57:00,9.3,7.0,30.49,West,266,0.0,0.0,90,0.00,,,0.00,meteohub,2013-02-09 13:57:00,
2013-02-09 08:02:00,10.0,7.7,30.49,West,266,0.0,0.0,90,0.00,,,0.00,meteohub,2013-02-09 14:02:00,
2013-02-09 08:07:00,10.8,8.4,30.49,West,266,0.0,0.0,90,0.00,,,0.00,meteohub,2013-02-09 14:07:00,
2013-02-09 08:12:00,12.6,10.4,30.49,West,266,0.0,0.0,91,0.00,,,0.00,meteohub,2013-02-09 14:12:00,
2013-02-09 08:17:00,14.7,12.7,30.48,West,266,0.0,0.0,92,0.00,,,0.00,meteohub,2013-02-09 14:17:00,
2013-02-09 08:22:00,15.4,13.5,30.48,ESE,111,2.0,0.0,92,0.00,,,0.00,meteohub,2013-02-09 14:22:00,
2013-02-09 08:27:00,15.3,12.4,30.48,ESE,111,0.0,2.0,88,0.00,,,0.00,meteohub,2013-02-09 14:27:00,
2013-02-09 08:32:00,15.6,12.7,30.48,ESE,119,0.0,2.0,88,0.00,,,0.00,meteohub,2013-02-09 14:32:00,
2013-02-09 08:37:00,15.8,12.9,30.48,ESE,105,2.0,2.0,88,0.00,,,0.00,meteohub,2013-02-09 14:37:00,
2013-02-09 08:42:00,16.0,12.7,30.49,ENE,74,0.0,4.0,87,0.00,,,0.00,meteohub,2013-02-09 14:42:00,
2013-02-09 08:47:00,16.7,13.8,30.49,NE,56,0.0,4.0,88,0.00,,,0.00,meteohub,2013-02-09 14:47:00,
2013-02-09 08:52:00,17.1,13.8,30.49,North,357,2.0,4.0,87,0.00,,,0.00,meteohub,2013-02-09 14:52:00,
2013-02-09 08:57:00,17.2,14.4,30.49,NE,39,0.0,2.0,88,0.00,,,0.00,meteohub,2013-02-09 14:57:00,
2013-02-09 09:02:00,17.8,15.1,30.49,East,96,0.0,2.0,89,0.00,,,0.00,meteohub,2013-02-09 15:02:00,
2013-02-09 09:07:00,18.9,16.2,30.50,NNE,19,0.0,2.0,89,0.00,,,0.00,meteohub,2013-02-09 15:07:00,
2013-02-09 09:12:00,19.6,16.9,30.49,East,87,1.0,2.0,89,0.00,,,0.00,meteohub,2013-02-09 15:12:00,
2013-02-09 09:17:00,19.9,16.7,30.49,ESE,109,2.0,2.0,87,0.00,,,0.00,meteohub,2013-02-09 15:17:00,
2013-02-09 09:22:00,20.1,16.9,30.49,NE,36,2.0,2.0,87,0.00,,,0.00,meteohub,2013-02-09 15:22:00,
2013-02-09 09:27:00,20.8,17.6,30.49,NE,39,0.0,2.0,87,0.00,,,0.00,meteohub,2013-02-09 15:27:00,
2013-02-09 09:32:00,21.6,17.8,30.49,East,96,3.0,3.0,85,0.00,,,0.00,meteohub,2013-02-09 15:32:00,
2013-02-09 09:37:00,21.7,17.6,30.49,SE,134,0.0,4.0,84,0.00,,,0.00,meteohub,2013-02-09 15:37:00,
2013-02-09 09:42:00,22.3,18.1,30.48,SSE,149,3.0,4.0,84,0.00,,,0.00,meteohub,2013-02-09 15:42:00,
2013-02-09 09:47:00,22.5,18.1,30.48,ESE,119,3.0,4.0,83,0.00,,,0.00,meteohub,2013-02-09 15:47:00,
2013-02-09 09:52:00,23.0,18.7,30.49,SE,141,3.0,4.0,83,0.00,,,0.00,meteohub,2013-02-09 15:52:00,
2013-02-09 09:57:00,23.4,18.7,30.49,SE,124,4.0,5.0,82,0.00,,,0.00,meteohub,2013-02-09 15:57:00,
2013-02-09 10:02:00,23.5,18.3,30.49,SE,136,2.0,6.0,80,0.00,,,0.00,meteohub,2013-02-09 16:02:00,
2013-02-09 10:07:00,23.9,18.3,30.49,SSE,152,1.0,7.0,79,0.00,,,0.00,meteohub,2013-02-09 16:07:00,
2013-02-09 10:12:00,24.1,18.1,30.48,SE,145,4.0,7.0,78,0.00,,,0.00,meteohub,2013-02-09 16:12:00,
2013-02-09 10:17:00,24.3,18.3,30.48,SSE,149,5.0,9.0,78,0.00,,,0.00,meteohub,2013-02-09 16:17:00,
2013-02-09 10:22:00,24.6,18.7,30.48,ESE,107,4.0,9.0,78,0.00,,,0.00,meteohub,2013-02-09 16:22:00,
2013-02-09 10:27:00,24.8,18.7,30.48,SE,126,2.0,9.0,77,0.00,,,0.00,meteohub,2013-02-09 16:27:00,
2013-02-09 10:33:00,25.0,19.0,30.48,ESE,123,6.0,7.0,78,0.00,,,0.00,meteohub,2013-02-09 16:33:00,
2013-02-09 10:38:00,25.2,19.0,30.48,SE,129,4.0,7.0,77,0.00,,,0.00,meteohub,2013-02-09 16:38:00,
2013-02-09 10:43:00,25.5,19.4,30.48,East,95,7.0,7.0,77,0.00,,,0.00,meteohub,2013-02-09 16:43:00,
2013-02-09 10:48:00,25.5,18.7,30.48,SSE,148,4.0,8.0,75,0.00,,,0.00,meteohub,2013-02-09 16:48:00,
2013-02-09 10:53:00,26.2,19.0,30.48,East,101,5.0,8.0,74,0.00,,,0.00,meteohub,2013-02-09 16:53:00,
2013-02-09 10:58:00,27.0,19.2,30.48,South,172,3.0,8.0,72,0.00,,,0.00,meteohub,2013-02-09 16:58:00,
2013-02-09 11:03:00,27.1,18.3,30.48,SSE,153,3.0,8.0,69,0.00,,,0.00,meteohub,2013-02-09 17:03:00,
2013-02-09 11:08:00,27.5,18.3,30.48,SW,228,3.0,6.0,68,0.00,,,0.00,meteohub,2013-02-09 17:08:00,
2013-02-09 11:13:00,27.7,17.8,30.48,ESE,113,4.0,7.0,66,0.00,,,0.00,meteohub,2013-02-09 17:13:00,
2013-02-09 11:18:00,27.5,18.0,30.48,SSW,201,3.0,8.0,67,0.00,,,0.00,meteohub,2013-02-09 17:18:00,
2013-02-09 11:23:00,28.2,18.3,30.47,SE,126,6.0,8.0,66,0.00,,,0.00,meteohub,2013-02-09 17:23:00,
2013-02-09 11:28:00,28.2,18.3,30.47,East,90,5.0,8.0,66,0.00,,,0.00,meteohub,2013-02-09 17:28:00,
2013-02-09 11:33:00,28.0,18.5,30.47,ESE,123,8.0,9.0,67,0.00,,,0.00,meteohub,2013-02-09 17:33:00,
2013-02-09 11:38:00,28.4,18.9,30.46,SE,124,6.0,9.0,67,0.00,,,0.00,meteohub,2013-02-09 17:38:00,
2013-02-09 11:43:00,28.6,18.3,30.46,SE,133,2.0,9.0,65,0.00,,,0.00,meteohub,2013-02-09 17:43:00,
2013-02-09 11:48:00,28.9,18.7,30.46,ESE,112,3.0,8.0,65,0.00,,,0.00,meteohub,2013-02-09 17:48:00,
2013-02-09 11:53:00,28.8,18.1,30.46,SSE,153,7.0,8.0,64,0.00,,,0.00,meteohub,2013-02-09 17:53:00,
2013-02-09 11:58:00,29.1,17.8,30.46,SW,225,2.0,9.0,62,0.00,,,0.00,meteohub,2013-02-09 17:58:00,
2013-02-09 12:03:00,29.1,16.5,30.45,SE,145,7.0,9.0,59,0.00,,,0.00,meteohub,2013-02-09 18:03:00,
2013-02-09 12:08:00,28.6,16.5,30.45,SE,129,3.0,9.0,60,0.00,,,0.00,meteohub,2013-02-09 18:08:00,
2013-02-09 12:13:00,28.9,16.9,30.45,ESE,106,7.0,9.0,60,0.00,,,0.00,meteohub,2013-02-09 18:13:00,
2013-02-09 12:18:00,28.9,17.2,30.44,East,95,5.0,9.0,61,0.00,,,0.00,meteohub,2013-02-09 18:18:00,
2013-02-09 12:23:00,29.5,18.1,30.44,SSW,198,3.0,9.0,62,0.00,,,0.00,meteohub,2013-02-09 18:23:00,
2013-02-09 12:28:00,30.0,18.1,30.44,ESE,105,6.0,9.0,61,0.00,,,0.00,meteohub,2013-02-09 18:28:00,
2013-02-09 12:33:00,29.7,17.1,30.45,South,181,4.0,9.0,59,0.00,,,0.00,meteohub,2013-02-09 18:33:00,
2013-02-09 12:38:00,30.2,16.9,30.44,SSW,195,4.0,9.0,57,0.00,,,0.00,meteohub,2013-02-09 18:38:00,
2013-02-09 12:43:00,30.4,16.5,30.45,SE,127,2.0,9.0,56,0.00,,,0.00,meteohub,2013-02-09 18:43:00,
2013-02-09 12:48:00,30.9,18.0,30.44,SE,129,2.0,8.0,58,0.00,,,0.00,meteohub,2013-02-09 18:48:00,
2013-02-09 12:53:00,30.7,17.8,30.44,SE,141,5.0,10.0,58,0.00,,,0.00,meteohub,2013-02-09 18:53:00,
2013-02-09 12:58:00,30.6,17.6,30.44,SW,219,3.0,10.0,58,0.00,,,0.00,meteohub,2013-02-09 18:58:00,
2013-02-09 13:03:00,31.3,18.1,30.43,South,185,4.0,10.0,58,0.00,,,0.00,meteohub,2013-02-09 19:03:00,
2013-02-09 13:08:00,31.1,17.6,30.43,West,259,1.0,8.0,57,0.00,,,0.00,meteohub,2013-02-09 19:08:00,
2013-02-09 13:13:00,31.3,17.8,30.43,ESE,123,4.0,8.0,57,0.00,,,0.00,meteohub,2013-02-09 19:13:00,
2013-02-09 13:18:00,30.6,17.6,30.43,South,169,5.0,8.0,58,0.00,,,0.00,meteohub,2013-02-09 19:18:00,
2013-02-09 13:23:00,30.9,17.4,30.43,WNW,285,1.0,8.0,57,0.00,,,0.00,meteohub,2013-02-09 19:23:00,
2013-02-09 13:28:00,30.9,16.7,30.43,SW,219,4.0,9.0,55,0.00,,,0.00,meteohub,2013-02-09 19:28:00,
2013-02-09 13:33:00,31.5,17.2,30.42,WSW,246,4.0,9.0,55,0.00,,,0.00,meteohub,2013-02-09 19:33:00,
2013-02-09 13:38:00,31.5,17.2,30.42,SE,134,3.0,9.0,55,0.00,,,0.00,meteohub,2013-02-09 19:38:00,
2013-02-09 13:43:00,31.3,17.4,30.42,SSE,150,2.0,7.0,56,0.00,,,0.00,meteohub,2013-02-09 19:43:00,
2013-02-09 13:48:00,31.5,18.0,30.42,SSE,153,7.0,8.0,57,0.00,,,0.00,meteohub,2013-02-09 19:48:00,
2013-02-09 13:53:00,30.7,17.2,30.41,WSW,238,2.0,10.0,57,0.00,,,0.00,meteohub,2013-02-09 19:53:00,
2013-02-09 13:59:00,30.7,17.2,30.41,SW,215,3.0,10.0,57,0.00,,,0.00,meteohub,2013-02-09 19:59:00,
2013-02-09 14:04:00,30.9,18.0,30.41,SSW,210,4.0,10.0,58,0.00,,,0.00,meteohub,2013-02-09 20:04:00,
2013-02-09 14:09:00,30.9,18.0,30.41,SE,135,1.0,9.0,58,0.00,,,0.00,meteohub,2013-02-09 20:09:00,
2013-02-09 14:14:00,31.1,18.1,30.41,South,175,10.0,10.0,58,0.00,,,0.00,meteohub,2013-02-09 20:14:00,
2013-02-09 14:19:00,30.9,18.0,30.41,South,180,3.0,13.0,58,0.00,,,0.00,meteohub,2013-02-09 20:19:00,
2013-02-09 14:24:00,31.1,18.9,30.41,ESE,115,2.0,13.0,60,0.00,,,0.00,meteohub,2013-02-09 20:24:00,
2013-02-09 14:29:00,30.7,18.5,30.40,South,175,7.0,13.0,60,0.00,,,0.00,meteohub,2013-02-09 20:29:00,
2013-02-09 14:34:00,30.7,18.5,30.40,SSE,166,3.0,9.0,60,0.00,,,0.00,meteohub,2013-02-09 20:34:00,
2013-02-09 14:39:00,30.9,18.7,30.40,SSW,203,3.0,9.0,60,0.00,,,0.00,meteohub,2013-02-09 20:39:00,
2013-02-09 14:44:00,30.7,18.5,30.40,East,94,9.0,9.0,60,0.00,,,0.00,meteohub,2013-02-09 20:44:00,
2013-02-09 14:49:00,30.2,18.3,30.40,SSW,198,3.0,11.0,61,0.00,,,0.00,meteohub,2013-02-09 20:49:00,
2013-02-09 14:54:00,30.4,18.1,30.40,SSW,195,9.0,11.0,60,0.00,,,0.00,meteohub,2013-02-09 20:54:00,
2013-02-09 14:59:00,30.4,17.1,30.40,SE,133,4.0,11.0,57,0.00,,,0.00,meteohub,2013-02-09 20:59:00,
2013-02-09 15:04:00,30.4,17.1,30.40,SSW,197,4.0,10.0,57,0.00,,,0.00,meteohub,2013-02-09 21:04:00,
2013-02-09 15:09:00,30.4,17.4,30.40,SW,219,5.0,10.0,58,0.00,,,0.00,meteohub,2013-02-09 21:09:00,
2013-02-09 15:14:00,30.4,17.1,30.40,South,176,4.0,10.0,57,0.00,,,0.00,meteohub,2013-02-09 21:14:00,
2013-02-09 15:19:00,29.8,16.0,30.40,SE,136,3.0,10.0,56,0.00,,,0.00,meteohub,2013-02-09 21:19:00,
2013-02-09 15:24:00,29.8,16.9,30.40,SSE,166,8.0,10.0,58,0.00,,,0.00,meteohub,2013-02-09 21:24:00,
2013-02-09 15:29:00,29.7,16.7,30.40,SW,236,5.0,9.0,58,0.00,,,0.00,meteohub,2013-02-09 21:29:00,
2013-02-09 15:34:00,29.7,17.1,30.40,SE,127,7.0,10.0,59,0.00,,,0.00,meteohub,2013-02-09 21:34:00,
2013-02-09 15:39:00,29.3,17.1,30.39,SE,128,4.0,10.0,60,0.00,,,0.00,meteohub,2013-02-09 21:39:00,
2013-02-09 15:44:00,29.1,17.4,30.39,SE,132,2.0,10.0,61,0.00,,,0.00,meteohub,2013-02-09 21:44:00,
2013-02-09 15:49:00,29.1,17.4,30.40,South,181,4.0,9.0,61,0.00,,,0.00,meteohub,2013-02-09 21:49:00,
2013-02-09 15:54:00,29.1,17.4,30.40,ESE,113,3.0,8.0,61,0.00,,,0.00,meteohub,2013-02-09 21:54:00,
2013-02-09 15:59:00,29.1,17.4,30.39,South,169,6.0,8.0,61,0.00,,,0.00,meteohub,2013-02-09 21:59:00,
2013-02-09 16:04:00,29.5,17.8,30.39,ESE,120,2.0,8.0,61,0.00,,,0.00,meteohub,2013-02-09 22:04:00,
2013-02-09 16:09:00,29.1,17.4,30.39,SE,136,4.0,8.0,61,0.00,,,0.00,meteohub,2013-02-09 22:09:00,
2013-02-09 16:14:00,28.8,17.4,30.39,ESE,122,7.0,9.0,62,0.00,,,0.00,meteohub,2013-02-09 22:14:00,
2013-02-09 16:19:00,28.8,17.4,30.39,SE,133,1.0,9.0,62,0.00,,,0.00,meteohub,2013-02-09 22:19:00,
2013-02-09 16:24:00,28.6,17.2,30.39,SE,125,1.0,9.0,62,0.00,,,0.00,meteohub,2013-02-09 22:24:00,
2013-02-09 16:29:00,28.6,16.9,30.39,SE,128,1.0,8.0,61,0.00,,,0.00,meteohub,2013-02-09 22:29:00,
2013-02-09 16:34:00,28.2,16.9,30.39,SE,139,3.0,6.0,62,0.00,,,0.00,meteohub,2013-02-09 22:34:00,
2013-02-09 16:39:00,27.9,17.2,30.39,SSW,204,1.0,5.0,64,0.00,,,0.00,meteohub,2013-02-09 22:39:00,
2013-02-09 16:44:00,27.7,17.4,30.39,SE,129,2.0,5.0,65,0.00,,,0.00,meteohub,2013-02-09 22:44:00,
2013-02-09 16:49:00,27.3,17.4,30.39,SE,135,2.0,5.0,66,0.00,,,0.00,meteohub,2013-02-09 22:49:00,
2013-02-09 16:54:00,27.0,17.4,30.39,SSE,163,2.0,6.0,67,0.00,,,0.00,meteohub,2013-02-09 22:54:00,
2013-02-09 16:59:00,26.6,17.1,30.39,SE,134,1.0,6.0,67,0.00,,,0.00,meteohub,2013-02-09 22:59:00,
2013-02-09 17:04:00,26.2,17.1,30.39,SE,126,1.0,5.0,68,0.00,,,0.00,meteohub,2013-02-09 23:04:00,
2013-02-09 17:09:00,25.9,17.1,30.39,ESE,116,2.0,3.0,69,0.00,,,0.00,meteohub,2013-02-09 23:09:00,
2013-02-09 17:14:00,25.5,16.7,30.39,SE,126,0.0,3.0,69,0.00,,,0.00,meteohub,2013-02-09 23:14:00,
2013-02-09 17:19:00,25.3,16.9,30.39,SE,140,1.0,3.0,70,0.00,,,0.00,meteohub,2013-02-09 23:19:00,
2013-02-09 17:25:00,25.0,16.9,30.39,ESE,117,1.0,3.0,71,0.00,,,0.00,meteohub,2013-02-09 23:25:00,
2013-02-09 17:30:00,24.6,16.9,30.40,SE,129,1.0,3.0,72,0.00,,,0.00,meteohub,2013-02-09 23:30:00,
2013-02-09 17:35:00,24.4,17.1,30.40,SSE,166,2.0,2.0,73,0.00,,,0.00,meteohub,2013-02-09 23:35:00,
2013-02-09 17:40:00,24.3,17.2,30.40,ESE,122,1.0,2.0,74,0.00,,,0.00,meteohub,2013-02-09 23:40:00,
2013-02-09 17:45:00,24.1,17.1,30.40,ESE,118,1.0,2.0,74,0.00,,,0.00,meteohub,2013-02-09 23:45:00,
2013-02-09 17:50:00,23.7,16.9,30.40,SE,146,2.0,2.0,75,0.00,,,0.00,meteohub,2013-02-09 23:50:00,
2013-02-09 17:55:00,23.5,17.1,30.39,SE,125,2.0,2.0,76,0.00,,,0.00,meteohub,2013-02-09 23:55:00,
2013-02-09 18:00:00,23.5,17.1,30.38,SE,132,3.0,4.0,76,0.00,,,0.00,meteohub,2013-02-10 00:00:00,
2013-02-09 18:05:00,23.5,17.8,30.38,ESE,122,3.0,5.0,78,0.00,,,0.00,meteohub,2013-02-10 00:05:00,
2013-02-09 18:10:00,23.4,17.6,30.38,ESE,107,2.0,5.0,78,0.00,,,0.00,meteohub,2013-02-10 00:10:00,
2013-02-09 18:15:00,23.4,18.3,30.38,ESE,117,3.0,5.0,81,0.00,,,0.00,meteohub,2013-02-10 00:15:00,
2013-02-09 18:20:00,23.4,18.3,30.38,SE,124,4.0,6.0,81,0.00,,,0.00,meteohub,2013-02-10 00:20:00,
2013-02-09 18:25:00,23.4,18.3,30.38,ESE,121,3.0,6.0,81,0.00,,,0.00,meteohub,2013-02-10 00:25:00,
2013-02-09 18:30:00,23.2,18.5,30.38,ESE,103,2.0,6.0,82,0.00,,,0.00,meteohub,2013-02-10 00:30:00,
2013-02-09 18:35:00,22.8,18.1,30.38,ESE,117,2.0,5.0,82,0.00,,,0.00,meteohub,2013-02-10 00:35:00,
2013-02-09 18:40:00,22.6,18.3,30.38,ESE,113,2.0,5.0,83,0.00,,,0.00,meteohub,2013-02-10 00:40:00,
2013-02-09 18:45:00,22.5,18.1,30.38,SE,136,5.0,5.0,83,0.00,,,0.00,meteohub,2013-02-10 00:45:00,
2013-02-09 18:50:00,22.5,18.3,30.38,ESE,122,2.0,6.0,84,0.00,,,0.00,meteohub,2013-02-10 00:50:00,
2013-02-09 18:55:00,22.3,18.1,30.38,ENE,68,6.0,6.0,84,0.00,,,0.00,meteohub,2013-02-10 00:55:00,
2013-02-09 19:00:00,22.3,18.5,30.38,SE,129,2.0,6.0,85,0.00,,,0.00,meteohub,2013-02-10 01:00:00,
2013-02-09 19:05:00,22.3,18.5,30.37,East,79,3.0,7.0,85,0.00,,,0.00,meteohub,2013-02-10 01:05:00,
2013-02-09 19:10:00,22.1,18.5,30.37,East,92,5.0,7.0,86,0.00,,,0.00,meteohub,2013-02-10 01:10:00,
2013-02-09 19:15:00,21.9,18.3,30.37,ESE,117,2.0,7.0,86,0.00,,,0.00,meteohub,2013-02-10 01:15:00,
2013-02-09 19:20:00,21.7,18.1,30.37,ESE,108,4.0,8.0,86,0.00,,,0.00,meteohub,2013-02-10 01:20:00,
2013-02-09 19:25:00,21.7,18.1,30.37,ESE,112,3.0,8.0,86,0.00,,,0.00,meteohub,2013-02-10 01:25:00,
2013-02-09 19:30:00,21.6,18.0,30.37,ESE,117,3.0,8.0,86,0.00,,,0.00,meteohub,2013-02-10 01:30:00,
2013-02-09 19:35:00,21.6,18.3,30.37,East,90,2.0,8.0,87,0.00,,,0.00,meteohub,2013-02-10 01:35:00,
2013-02-09 19:40:00,21.4,18.3,30.37,SE,134,4.0,8.0,88,0.00,,,0.00,meteohub,2013-02-10 01:40:00,
2013-02-09 19:45:00,21.2,18.1,30.36,SE,129,5.0,8.0,88,0.00,,,0.00,meteohub,2013-02-10 01:45:00,
2013-02-09 19:50:00,21.4,18.7,30.37,SSE,150,5.0,8.0,89,0.00,,,0.00,meteohub,2013-02-10 01:50:00,
2013-02-09 19:55:00,21.4,18.7,30.37,SE,136,5.0,8.0,89,0.00,,,0.00,meteohub,2013-02-10 01:55:00,
2013-02-09 20:00:00,21.2,18.5,30.37,ESE,120,6.0,8.0,89,0.00,,,0.00,meteohub,2013-02-10 02:00:00,
2013-02-09 20:05:00,21.2,18.7,30.36,ESE,122,6.0,8.0,90,0.00,,,0.00,meteohub,2013-02-10 02:05:00,
2013-02-09 20:10:00,21.0,18.5,30.37,East,99,3.0,8.0,90,0.00,,,0.00,meteohub,2013-02-10 02:10:00,
2013-02-09 20:15:00,20.8,18.3,30.36,ESE,119,3.0,8.0,90,0.00,,,0.00,meteohub,2013-02-10 02:15:00,
2013-02-09 20:20:00,20.7,18.1,30.37,ESE,115,2.0,8.0,90,0.00,,,0.00,meteohub,2013-02-10 02:20:00,
2013-02-09 20:25:00,20.7,18.1,30.37,ESE,119,3.0,6.0,90,0.00,,,0.00,meteohub,2013-02-10 02:25:00,
2013-02-09 20:30:00,20.7,18.5,30.36,SE,129,5.0,6.0,91,0.00,,,0.00,meteohub,2013-02-10 02:30:00,
2013-02-09 20:35:00,20.7,18.5,30.36,ESE,113,4.0,5.0,91,0.00,,,0.00,meteohub,2013-02-10 02:35:00,
2013-02-09 20:40:00,20.5,18.3,30.35,ESE,111,4.0,6.0,91,0.00,,,0.00,meteohub,2013-02-10 02:40:00,
2013-02-09 20:45:00,20.5,18.3,30.35,SSE,164,3.0,7.0,91,0.00,,,0.00,meteohub,2013-02-10 02:45:00,
2013-02-09 20:50:00,20.5,18.3,30.35,SE,129,2.0,7.0,91,0.00,,,0.00,meteohub,2013-02-10 02:50:00,
2013-02-09 20:55:00,20.5,18.5,30.35,ESE,108,2.0,8.0,92,0.00,,,0.00,meteohub,2013-02-10 02:55:00,
2013-02-09 21:00:00,20.5,18.5,30.36,SE,142,3.0,8.0,92,0.00,,,0.00,meteohub,2013-02-10 03:00:00,
2013-02-09 21:05:00,20.5,18.5,30.35,ESE,117,3.0,8.0,92,0.00,,,0.00,meteohub,2013-02-10 03:05:00,
2013-02-09 21:10:00,20.5,18.5,30.35,SE,141,3.0,7.0,92,0.00,,,0.00,meteohub,2013-02-10 03:10:00,
2013-02-09 21:15:00,20.5,18.5,30.35,SSE,162,3.0,7.0,92,0.00,,,0.00,meteohub,2013-02-10 03:15:00,
2013-02-09 21:20:00,20.5,18.5,30.35,SE,125,3.0,7.0,92,0.00,,,0.00,meteohub,2013-02-10 03:20:00,
2013-02-09 21:25:00,20.7,18.7,30.35,SE,130,5.0,8.0,92,0.00,,,0.00,meteohub,2013-02-10 03:25:00,
2013-02-09 21:30:00,20.7,18.7,30.35,South,190,4.0,9.0,92,0.00,,,0.00,meteohub,2013-02-10 03:30:00,
2013-02-09 21:36:00,20.7,18.7,30.35,SSE,155,5.0,9.0,92,0.00,,,0.00,meteohub,2013-02-10 03:36:00,
2013-02-09 21:41:00,20.8,18.9,30.35,SE,132,3.0,9.0,92,0.00,,,0.00,meteohub,2013-02-10 03:41:00,
2013-02-09 21:46:00,20.8,18.9,30.34,SE,136,4.0,9.0,92,0.00,,,0.00,meteohub,2013-02-10 03:46:00,
2013-02-09 21:51:00,20.8,18.9,30.34,SE,146,5.0,11.0,92,0.00,,,0.00,meteohub,2013-02-10 03:51:00,
2013-02-09 21:56:00,20.7,18.7,30.34,SE,136,8.0,11.0,92,0.00,,,0.00,meteohub,2013-02-10 03:56:00,
2013-02-09 22:01:00,20.5,18.5,30.34,East,92,4.0,11.0,92,0.00,,,0.00,meteohub,2013-02-10 04:01:00,
2013-02-09 22:06:00,20.5,18.5,30.34,ESE,114,3.0,8.0,92,0.00,,,0.00,meteohub,2013-02-10 04:06:00,
2013-02-09 22:11:00,20.5,18.5,30.34,ESE,115,3.0,8.0,92,0.00,,,0.00,meteohub,2013-02-10 04:11:00,
2013-02-09 22:16:00,20.5,18.9,30.34,ESE,113,3.0,8.0,93,0.00,,,0.00,meteohub,2013-02-10 04:16:00,
2013-02-09 22:21:00,20.5,18.9,30.34,SE,129,6.0,7.0,93,0.00,,,0.00,meteohub,2013-02-10 04:21:00,
2013-02-09 22:26:00,20.7,19.0,30.34,ESE,121,5.0,7.0,93,0.00,,,0.00,meteohub,2013-02-10 04:26:00,
2013-02-09 22:31:00,20.7,19.0,30.34,SE,143,3.0,8.0,93,0.00,,,0.00,meteohub,2013-02-10 04:31:00,
2013-02-09 22:36:00,20.7,19.0,30.34,SE,128,3.0,8.0,93,0.00,,,0.00,meteohub,2013-02-10 04:36:00,
2013-02-09 22:41:00,20.7,19.0,30.34,SE,146,3.0,7.0,93,0.00,,,0.00,meteohub,2013-02-10 04:41:00,
2013-02-09 22:46:00,20.7,19.0,30.34,SE,135,4.0,7.0,93,0.00,,,0.00,meteohub,2013-02-10 04:46:00,
2013-02-09 22:51:00,20.5,18.9,30.33,SE,136,4.0,7.0,93,0.00,,,0.00,meteohub,2013-02-10 04:51:00,
2013-02-09 22:56:00,20.5,18.9,30.33,East,96,4.0,7.0,93,0.00,,,0.00,meteohub,2013-02-10 04:56:00,
2013-02-09 23:00:00,20.5,18.9,30.33,SSE,148,5.0,7.0,93,0.00,,,0.00,meteohub,2013-02-10 05:00:00,
2013-02-09 23:05:00,20.5,18.9,30.34,ESE,115,5.0,9.0,93,0.00,,,0.00,meteohub,2013-02-10 05:05:00,
2013-02-09 23:10:00,20.5,19.0,30.33,East,89,3.0,9.0,94,0.00,,,0.00,meteohub,2013-02-10 05:10:00,
2013-02-09 23:15:00,20.5,19.0,30.33,SE,136,5.0,8.0,94,0.00,,,0.00,meteohub,2013-02-10 05:15:00,
2013-02-09 23:20:00,20.5,19.0,30.33,ESE,111,3.0,7.0,94,0.00,,,0.00,meteohub,2013-02-10 05:20:00,
2013-02-09 23:25:00,20.5,19.0,30.32,SSE,149,4.0,7.0,94,0.00,,,0.00,meteohub,2013-02-10 05:25:00,
2013-02-09 23:30:00,20.7,19.2,30.32,East,97,4.0,7.0,94,0.00,,,0.00,meteohub,2013-02-10 05:30:00,
2013-02-09 23:35:00,20.7,19.2,30.32,SSE,152,2.0,9.0,94,0.00,,,0.00,meteohub,2013-02-10 05:35:00,
2013-02-09 23:40:00,20.7,19.2,30.32,ESE,108,4.0,9.0,94,0.00,,,0.00,meteohub,2013-02-10 05:40:00,
2013-02-09 23:45:00,20.7,19.2,30.32,SE,134,3.0,9.0,94,0.00,,,0.00,meteohub,2013-02-10 05:45:00,
2013-02-09 23:50:00,20.7,19.2,30.32,SE,134,4.0,9.0,94,0.00,,,0.00,meteohub,2013-02-10 05:50:00,
2013-02-09 23:55:00,20.8,19.4,30.31,ESE,102,4.0,9.0,94,0.00,,,0.00,meteohub,2013-02-10 05:55:00,